YAOGAN-35 03A (53316 NORAD) Tracking and Keplerian Element Data

This shows tracking and keplerian element data for the satellite.

Feedback or suggestion? Click here.




ElementValue
Catalog53316
NameYAOGAN-35 03A
Epoch Orbit906
Epoch Day270.01306545
Epoch Year2022
RAAN110.7695
Inclination34.9973
Eccentricity0.0007251
Argument of Perigee66.3366
Mean Anonmoly62.2124
Mean Motion15.22997053
Decay Rate5.207E-05
L11 53316U 22088A 22270.01306545 .00005207 00000+0 21745-3 0 9990
L22 53316 34.9973 110.7695 0007251 66.3366 62.2124 15.22997053 9064

Live tracking and technical data element details for YAOGAN-35 03A (NORAD 53316). YAOGAN-35 03A can be tracked NOW for your location showing map with azimuth and elevation plus other details from your city location.

Track the satellite on the map from your city or location and see movement details for azimuth, elevation, latitude, longitude, range, height, and movement on the map or in text.







IsCatalogInMostPopularTable: catalog: 53316, numindb: 4
Update: records affected: 1



GetName: 53316 YAOGAN-35 03A

Hit Count: updated at: Wed, 05 Oct 2022 08:11:00 GMT